TimeCDT,TemperatureF,Dew PointF,Humidity,Sea Level PressureIn,VisibilityMPH,Wind Direction,Wind SpeedMPH,Gust SpeedMPH,PrecipitationIn,Events,Conditions,WindDirDegrees,DateUTC
12:07 AM,66.2,64.4,94,29.98,9.0,Calm,Calm,-,0.00,,Overcast,0,2013-05-03 05:07:00
12:41 AM,66.2,64.4,94,29.97,6.0,Calm,Calm,-,0.02,Rain,Light Rain,0,2013-05-03 05:41:00
12:53 AM,66.0,64.0,93,29.94,8.0,Calm,Calm,-,0.02,Rain,Light Rain,0,2013-05-03 05:53:00
1:08 AM,66.2,64.4,94,29.96,8.0,Calm,Calm,-,0.00,Rain,Light Rain,0,2013-05-03 06:08:00
1:29 AM,66.2,64.4,94,29.95,6.0,ESE,4.6,-,0.01,Rain,Light Rain,110,2013-05-03 06:29:00
1:53 AM,64.9,64.0,97,29.92,2.5,SE,3.5,-,0.06,Rain,Heavy Rain,130,2013-05-03 06:53:00
2:03 AM,64.4,64.4,100,29.94,2.5,SE,3.5,-,0.03,Rain,Rain,140,2013-05-03 07:03:00
2:07 AM,64.4,64.4,100,29.93,2.5,SSW,3.5,-,0.04,Rain,Rain,200,2013-05-03 07:07:00
2:15 AM,64.4,64.4,100,29.93,2.0,SW,6.9,-,0.06,Rain,Rain,230,2013-05-03 07:15:00
2:26 AM,64.4,62.6,94,29.92,8.0,Variable,4.6,-,0.07,Rain,Light Rain,0,2013-05-03 07:26:00
2:53 AM,64.9,64.0,97,29.90,9.0,SE,5.8,-,0.07,Rain,Light Rain,130,2013-05-03 07:53:00
3:34 AM,64.4,62.6,94,29.91,2.5,SE,10.4,19.6,0.09,Rain,Rain,130,2013-05-03 08:34:00
3:38 AM,64.4,62.6,94,29.91,4.0,SE,10.4,19.6,0.09,Rain,Light Rain,140,2013-05-03 08:38:00
3:53 AM,64.9,63.0,93,29.89,7.0,SE,6.9,-,0.09,Rain,Light Rain,140,2013-05-03 08:53:00
4:53 AM,64.9,63.0,93,29.88,5.0,SSE,8.1,-,0.01,Rain,Light Rain,150,2013-05-03 09:53:00
5:53 AM,64.9,63.0,93,29.88,6.0,SE,5.8,-,0.02,Rain,Light Rain,140,2013-05-03 10:53:00
6:29 AM,64.4,62.6,94,29.90,1.8,South,3.5,-,0.06,Rain,Heavy Rain,180,2013-05-03 11:29:00
6:44 AM,64.4,62.6,94,29.91,3.0,Calm,Calm,-,0.12,Rain,Light Rain,0,2013-05-03 11:44:00
6:53 AM,64.9,63.0,93,29.90,9.0,West,6.9,-,0.12,Rain,Light Rain,280,2013-05-03 11:53:00
7:04 AM,57.2,57.2,100,29.93,1.5,West,15.0,20.7,0.07,Rain,Heavy Rain,280,2013-05-03 12:04:00
7:15 AM,57.2,55.4,94,29.93,0.8,NW,10.4,-,0.16,Rain,Heavy Rain,310,2013-05-03 12:15:00
7:29 AM,55.4,55.4,100,29.94,1.5,NW,11.5,17.3,0.25,Rain,Heavy Rain,310,2013-05-03 12:29:00
7:41 AM,55.4,53.6,94,29.94,3.0,WNW,12.7,-,0.27,Rain,Light Rain,290,2013-05-03 12:41:00
7:46 AM,53.6,53.6,100,29.94,1.5,WNW,10.4,19.6,0.32,Rain,Rain,300,2013-05-03 12:46:00
7:53 AM,54.0,53.1,97,29.93,0.8,WNW,13.8,19.6,0.36,Rain,Heavy Rain,300,2013-05-03 12:53:00
8:00 AM,53.6,51.8,94,29.95,1.0,WNW,13.8,-,0.05,Rain,Heavy Rain,300,2013-05-03 13:00:00
8:18 AM,53.6,51.8,94,29.96,1.8,NW,8.1,18.4,0.11,Rain,Rain,320,2013-05-03 13:18:00
8:25 AM,53.6,51.8,94,29.96,2.0,NW,8.1,-,0.12,Rain,Light Rain,310,2013-05-03 13:25:00
8:48 AM,51.8,50.0,94,29.97,3.0,NW,11.5,20.7,0.14,Rain,Light Rain,310,2013-05-03 13:48:00
8:53 AM,52.0,51.1,97,29.96,2.5,NW,8.1,17.3,0.14,Rain,Light Rain,310,2013-05-03 13:53:00
9:04 AM,51.8,51.8,100,29.97,3.0,NW,8.1,-,0.01,Rain,Light Rain,310,2013-05-03 14:04:00
9:17 AM,51.8,51.8,100,29.97,2.5,NW,8.1,16.1,0.02,Rain,Light Rain,320,2013-05-03 14:17:00
9:27 AM,51.8,51.8,100,29.97,1.5,NW,6.9,-,0.03,Rain,Light Rain,320,2013-05-03 14:27:00
9:34 AM,51.8,51.8,100,29.97,1.8,NW,9.2,-,0.03,Rain,Light Rain,310,2013-05-03 14:34:00
9:41 AM,51.8,51.8,100,29.98,2.5,NW,12.7,18.4,0.04,Rain,Light Rain,310,2013-05-03 14:41:00
9:49 AM,51.8,50.0,94,29.97,5.0,WNW,12.7,-,0.04,Rain,Light Rain,300,2013-05-03 14:49:00
9:50 AM,51.1,50.0,96,29.96,6.0,WNW,12.7,-,0.04,Rain,Light Rain,300,2013-05-03 14:50:00
9:59 AM,51.8,50.0,94,29.98,10.0,NW,9.2,-,0.00,Rain,Light Rain,320,2013-05-03 14:59:00
10:09 AM,51.8,48.2,88,29.98,1.5,NW,10.4,19.6,0.01,Rain,Light Rain,320,2013-05-03 15:09:00
10:53 AM,51.1,48.9,92,29.98,1.5,NW,6.9,-,0.12,Rain,Light Rain,310,2013-05-03 15:53:00
10:58 AM,51.8,50.0,94,29.99,2.5,NW,10.4,-,0.00,Rain,Light Rain,310,2013-05-03 15:58:00
11:16 AM,50.0,48.2,94,29.99,1.2,WNW,11.5,-,0.02,Rain,Rain,300,2013-05-03 16:16:00
11:21 AM,50.0,48.2,94,29.99,1.8,WNW,10.4,-,0.04,Rain,Rain,300,2013-05-03 16:21:00
11:26 AM,50.0,48.2,94,29.99,3.0,WNW,12.7,18.4,0.04,Rain,Light Rain,300,2013-05-03 16:26:00
11:33 AM,50.0,48.2,94,29.99,8.0,WNW,11.5,19.6,0.04,Rain,Light Rain,300,2013-05-03 16:33:00
11:53 AM,50.0,48.0,93,29.98,2.0,NW,10.4,18.4,0.06,Rain,Light Rain,320,2013-05-03 16:53:00
12:06 PM,50.0,48.2,94,29.99,7.0,NW,11.5,16.1,0.00,Rain,Light Rain,310,2013-05-03 17:06:00
12:17 PM,50.0,48.2,94,29.99,1.8,NW,10.4,-,0.02,Rain,Rain,320,2013-05-03 17:17:00
12:53 PM,51.1,48.9,92,29.96,1.8,NW,5.8,-,0.10,Rain,Light Rain,310,2013-05-03 17:53:00
1:08 PM,51.8,48.2,88,29.98,1.8,WNW,10.4,-,0.02,Rain,Rain,300,2013-05-03 18:08:00
1:15 PM,51.8,48.2,88,29.98,2.5,NW,11.5,18.4,0.02,Rain,Light Rain,310,2013-05-03 18:15:00
1:19 PM,51.8,48.2,88,29.98,3.0,NW,10.4,18.4,0.02,Rain,Light Rain,310,2013-05-03 18:19:00
1:30 PM,51.8,48.2,88,29.98,5.0,NW,9.2,-,0.03,Rain,Light Rain,310,2013-05-03 18:30:00
1:38 PM,51.8,48.2,88,29.98,9.0,WNW,11.5,-,0.03,Rain,Light Rain,300,2013-05-03 18:38:00
1:53 PM,51.1,48.9,92,29.97,5.0,WNW,10.4,23.0,0.03,Rain,Light Rain,300,2013-05-03 18:53:00
2:22 PM,51.8,48.2,88,29.98,5.0,WNW,13.8,24.2,0.00,Rain,Light Rain,290,2013-05-03 19:22:00
2:36 PM,51.8,48.2,88,29.98,7.0,WNW,11.5,-,0.00,Rain,Light Rain,300,2013-05-03 19:36:00
2:53 PM,51.1,48.0,89,29.96,10.0,WNW,17.3,24.2,0.00,,Overcast,300,2013-05-03 19:53:00
3:30 PM,48.2,44.6,87,29.99,10.0,WNW,18.4,27.6,N/A,,Overcast,290,2013-05-03 20:30:00
4:53 PM,46.9,45.0,93,29.98,8.0,NW,12.7,21.9,0.00,Rain,Light Rain,310,2013-05-03 21:53:00
5:11 PM,46.4,44.6,93,29.99,10.0,NW,10.4,20.7,0.00,,Overcast,310,2013-05-03 22:11:00
5:53 PM,48.0,43.0,83,29.99,10.0,NW,13.8,23.0,0.00,,Overcast,320,2013-05-03 22:53:00
6:53 PM,46.9,42.1,83,30.00,10.0,NW,9.2,-,N/A,,Overcast,310,2013-05-03 23:53:00
7:45 PM,46.4,41.0,81,30.03,10.0,North,-9999.0,-,N/A,,Overcast,0,2013-05-04 00:45:00
7:53 PM,46.9,42.1,83,30.02,10.0,Variable,3.5,-,N/A,,Mostly Cloudy,0,2013-05-04 00:53:00
8:53 PM,45.0,42.1,90,30.02,10.0,Calm,Calm,-,N/A,,Clear,0,2013-05-04 01:53:00
9:53 PM,44.1,41.0,89,30.03,10.0,Calm,Calm,-,N/A,,Clear,0,2013-05-04 02:53:00
10:53 PM,43.0,41.0,93,30.02,10.0,Calm,Calm,-,N/A,,Clear,0,2013-05-04 03:53:00
11:53 PM,42.1,39.9,92,30.02,10.0,Calm,Calm,-,N/A,,Clear,0,2013-05-04 04:53:00